Pineville, WV

1:41 AM EST on November 25, 2017 (GMT -0500)
Pineville

Weather History for KI16 - May, 2013

Change the Weather History Date:

Friday, May 24, 2013

  Actual Average (KBKW) Record (KBKW)
Temperature  
Mean Temperature 52 °F -  
Max Temperature 61 °F 72 °F 90 °F (1939)
Min Temperature 42 °F 52 °F 31 °F (1961)
Degree Days  
Heating Degree Days 14    
Growing Degree Days 2 (Base 50)    
Moisture  
Dew Point 47 °F    
Average Humidity 80    
Maximum Humidity 100    
Minimum Humidity 44    
Precipitation  
Precipitation 0.00 in - - ()
Sea Level Pressure  
Sea Level Pressure 30.20 in    
Wind  
Wind Speed - (North)    
Max Wind Speed -    
Max Gust Speed -    
Visibility 9 miles    
Events Rain    
Averages and records for this station are not official NWS values.
T = Trace of Precipitation, MM = Missing Value Source: NWS Daily Summary

Daily Weather History Graph

Daily Weather History Graph

Search for Another Location

Airport or City:

Trip Planner

Search our weather history database for the weather conditions in past years. The results will help you decide how hot, cold, wet, or windy it might be!

Date:

Astronomy

May. 24, 2013 Rise Set
Actual Time 6:10 AM EDT 8:36 PM EDT
Civil Twilight 5:40 AM EDT 9:06 PM EDT
Nautical Twilight 5:03 AM EDT 9:43 PM EDT
Astronomical Twilight 4:22 AM EDT 10:24 PM EDT
Moon 8:17 PM EDT (5/24) 5:40 AM EDT (5/24)
Length of Visible Light 15h 26m
Length of Day
14h 26m
Full, 100% of the Moon is Illuminated
May 24
Full
May 25
Full
May 31
Last Quarter
Jun 8
New
Jun 16
First Quarter

Hourly Weather History & Observations

Time (EDT) Temp. Dew Point Humidity Pressure Visibility Wind Dir Wind Speed Gust Speed Precip Events Conditions
12:15 AM 61.2 °F 61.2 °F 100% 30.02 in 7.0 mi North - - N/A   Overcast
12:35 AM 61.0 °F 61.0 °F 100% 30.02 in 10.0 mi North - - N/A   Overcast
12:55 AM 60.6 °F 60.4 °F 99% 30.02 in 10.0 mi North - - N/A   Overcast
1:15 AM 60.3 °F 60.1 °F 99% 30.02 in 5.0 mi North - - N/A   Heavy Drizzle
1:35 AM 59.9 °F 59.9 °F 100% 30.01 in 5.0 mi North - - N/A Rain Rain
1:55 AM 59.5 °F 59.5 °F 100% 30.01 in 5.0 mi North - - N/A Rain Rain
2:15 AM 59.5 °F 59.5 °F 100% 30.00 in 5.0 mi North - - N/A Rain Rain
2:35 AM 59.5 °F 59.5 °F 100% 30.00 in 5.0 mi North - - N/A Rain Rain
2:55 AM 59.2 °F 59.2 °F 100% 30.00 in 5.0 mi North - - N/A Rain Rain
3:15 AM 59.2 °F 59.2 °F 100% 30.00 in 4.0 mi North - - N/A Rain Rain
3:35 AM 58.1 °F 57.4 °F 97% 30.01 in 10.0 mi North - - N/A   Drizzle
3:55 AM 57.2 °F 56.1 °F 96% 30.03 in 7.0 mi North - - N/A   Light Drizzle
4:15 AM 55.4 °F 54.1 °F 96% 30.04 in 10.0 mi North - - N/A   Overcast
4:35 AM 54.1 °F 52.7 °F 95% 30.06 in 7.0 mi North - - N/A Rain Light Rain
4:55 AM 52.9 °F 51.1 °F 94% 30.08 in 10.0 mi North - - N/A   Overcast
5:15 AM 51.3 °F 49.6 °F 94% 30.09 in 10.0 mi North - - N/A   Overcast
5:35 AM 50.5 °F 49.3 °F 95% 30.10 in 10.0 mi North - - N/A   Overcast
5:55 AM 50.0 °F 48.4 °F 94% 30.12 in 10.0 mi North - - N/A   Overcast
6:15 AM 49.5 °F 47.5 °F 93% 30.13 in 10.0 mi North - - N/A   Overcast
6:35 AM 49.6 °F 46.9 °F 90% 30.14 in 10.0 mi North - - N/A   Overcast
6:55 AM 49.6 °F 46.8 °F 90% 30.15 in 10.0 mi North - - N/A   Overcast
7:15 AM 49.5 °F 46.6 °F 90% 30.16 in 10.0 mi North - - N/A   Overcast
7:35 AM 49.3 °F 47.3 °F 93% 30.17 in 5.0 mi North - - N/A   Drizzle
7:55 AM 48.9 °F 46.9 °F 93% 30.17 in 7.0 mi North - - N/A   Overcast
8:15 AM 48.7 °F 47.1 °F 94% 30.18 in 7.0 mi North - - N/A Rain Light Rain
8:35 AM 49.1 °F 46.6 °F 91% 30.19 in 10.0 mi North - - N/A   Overcast
8:55 AM 48.9 °F 46.6 °F 92% 30.20 in 5.0 mi North - - N/A   Drizzle
9:15 AM 48.4 °F 46.2 °F 92% 30.21 in 5.0 mi North - - N/A Rain Light Rain
9:35 AM 48.2 °F 46.2 °F 93% 30.22 in 10.0 mi North - - N/A   Overcast
9:55 AM 49.1 °F 45.7 °F 88% 30.23 in 10.0 mi North - - N/A   Overcast
10:15 AM 48.7 °F 45.7 °F 89% 30.23 in 10.0 mi North - - N/A   Overcast
10:35 AM 48.9 °F 45.5 °F 88% 30.24 in 10.0 mi North - - N/A   Overcast
10:55 AM 49.8 °F 44.6 °F 82% 30.25 in 10.0 mi North - - N/A   Overcast
11:15 AM 50.9 °F 45.1 °F 81% 30.25 in 10.0 mi North - - N/A   Overcast
11:35 AM 52.5 °F 45.0 °F 75% 30.25 in 10.0 mi North - - N/A   Overcast
11:55 AM 51.8 °F 44.8 °F 77% 30.26 in 10.0 mi North - - N/A   Overcast
12:15 PM 53.6 °F 45.0 °F 73% 30.26 in 10.0 mi North - - N/A   Overcast
12:35 PM 54.9 °F 45.3 °F 70% 30.26 in 10.0 mi North - - N/A   Overcast
12:55 PM 55.4 °F 44.1 °F 66% 30.26 in 10.0 mi North - - N/A   Mostly Cloudy
1:15 PM 55.9 °F 43.7 °F 63% 30.27 in 10.0 mi North - - N/A   Mostly Cloudy
1:35 PM 57.2 °F 42.6 °F 58% 30.27 in 10.0 mi North - - N/A   Mostly Cloudy
2:15 PM 57.2 °F 40.8 °F 54% 30.26 in 10.0 mi North - - N/A   Mostly Cloudy
2:35 PM 59.4 °F 40.6 °F 50% 30.27 in 10.0 mi North - - N/A   Mostly Cloudy
2:55 PM 59.9 °F 40.5 °F 49% 30.26 in 10.0 mi North - - N/A   Mostly Cloudy
3:15 PM 60.3 °F 39.2 °F 46% 30.27 in 10.0 mi North - - N/A   Mostly Cloudy
3:55 PM 60.3 °F 39.7 °F 47% 30.27 in 10.0 mi North - - N/A   Mostly Cloudy
4:15 PM 60.4 °F 39.4 °F 46% 30.27 in 10.0 mi North - - N/A   Mostly Cloudy
4:35 PM 61.0 °F 39.7 °F 46% 30.27 in 10.0 mi North - - N/A   Mostly Cloudy
4:55 PM 60.1 °F 38.1 °F 44% 30.27 in 10.0 mi North - - N/A   Mostly Cloudy
5:15 PM 60.8 °F 39.9 °F 46% 30.27 in 10.0 mi North - - N/A   Scattered Clouds
5:35 PM 60.8 °F 39.0 °F 45% 30.28 in 10.0 mi North - - N/A   Mostly Cloudy
5:55 PM 59.9 °F 37.8 °F 44% 30.29 in 10.0 mi North - - N/A   Scattered Clouds
6:15 PM 59.9 °F 38.5 °F 45% 30.29 in 10.0 mi North - - N/A   Scattered Clouds
6:35 PM 58.8 °F 39.0 °F 48% 30.29 in 10.0 mi North - - N/A   Scattered Clouds
6:55 PM 58.6 °F 40.1 °F 50% 30.29 in 10.0 mi North - - N/A   Clear
7:15 PM 57.2 °F 39.7 °F 52% 30.30 in 10.0 mi North - - N/A   Clear
7:35 PM 56.1 °F 39.7 °F 54% 30.30 in 10.0 mi North - - N/A   Clear
7:55 PM 53.6 °F 43.3 °F 68% 30.30 in 10.0 mi North - - N/A   Clear
8:15 PM 52.5 °F 43.5 °F 71% 30.30 in 10.0 mi North - - N/A   Scattered Clouds
8:35 PM 51.4 °F 43.9 °F 75% 30.30 in 10.0 mi North - - N/A   Clear
8:55 PM 48.9 °F 44.8 °F 86% 30.30 in 10.0 mi North - - N/A   Clear
9:15 PM 47.3 °F 44.6 °F 90% 30.30 in 10.0 mi North - - N/A   Clear
9:35 PM 46.4 °F 44.6 °F 93% 30.30 in 10.0 mi North - - N/A   Clear
9:55 PM 45.5 °F 44.2 °F 95% 30.31 in 10.0 mi North - - N/A   Clear
10:15 PM 44.8 °F 44.1 °F 97% 30.32 in 10.0 mi North - - N/A   Clear
10:35 PM 44.2 °F 43.9 °F 99% 30.32 in 10.0 mi North - - N/A   Clear
10:55 PM 43.7 °F 43.7 °F 100% 30.32 in 10.0 mi North - - N/A   Clear
11:15 PM 43.2 °F 43.2 °F 100% 30.32 in 10.0 mi North - - N/A   Clear
11:35 PM 42.8 °F 42.8 °F 100% 30.32 in 10.0 mi North - - N/A   Clear
11:55 PM 42.3 °F 42.3 °F 100% 30.32 in 10.0 mi North - - N/A   Clear